Es liegt ein Kommunikationsproblem . Gehen Sie direkt zur Website Meteoalarm : www.meteoalarm.eu und ├╝berpr├╝fen Sie die Wetterwarnungen..

Webcam Vorhersage DWD Regenradar Wetterlage NRW Blitze Wind GFS-Modell
webcam


Kleve -D├╝ffelward more information Kleve -D├╝ffelward


Goch more information Goch


Thunder radar more information blitzortung!


Weitere Templates dieser Seite und andere Webseiten:

Meteotemplate

Awekas - Template

weather34 - Template

Wetter aus Willich

Hubert Reyers' Wetter


te
World Weather Websites
 

METAR-Meldungen aus der Umgebung

   
EHDL - Nijmegen
Aktualisierung: 30-03-2023 16:55
Stark bew├Âlkt  
Stark bew├Âlkt  
   Wind: WSW 31.5 km/h
Wind: WSW 31.5 km/h
Temperatur: 15°C
Taupunkt: 8°C
Luftfeuchte: 63%
Luftdruck: 1005 hPa
Bew├Âlkt: Stark bew├Âlkt
Sichtbarkeit: More than 10 km
Bew├Âlkung: Stark bew├Âlkt 3100 ft,
Stark bew├Âlkt 3500 ft,
Stark bew├Âlkt 5900 ft
EHDL 301455Z AUTO 25017KT 170V310 9999 BKN031 BKN035 BKN059 15/08 Q1005 BLU
EHDL - Arnhem
Aktualisierung: 30-03-2023 16:55
Stark bew├Âlkt  
Stark bew├Âlkt  
   Wind: WSW 31.5 km/h
Wind: WSW 31.5 km/h
Temperatur: 15°C
Taupunkt: 8°C
Luftfeuchte: 63%
Luftdruck: 1005 hPa
Bew├Âlkt: Stark bew├Âlkt
Sichtbarkeit: More than 10 km
Bew├Âlkung: Stark bew├Âlkt 3100 ft,
Stark bew├Âlkt 3500 ft,
Stark bew├Âlkt 5900 ft
EHDL 301455Z AUTO 25017KT 170V310 9999 BKN031 BKN035 BKN059 15/08 Q1005 BLU
EHAM - Amsterdam
Aktualisierung: 30-03-2023 16:55
leicht bew├Âlkt  
leicht bew├Âlkt  
   Wind: WSW 46.3 km/h<br />Gust to 46.3 km/h
Wind: WSW 46.3 km/h
Gust to 46.3 km/h
Temperatur: 13°C
Taupunkt: 9°C
Luftfeuchte: 77%
Luftdruck: 1005 hPa
Bew├Âlkt: leicht bew├Âlkt
Sichtbarkeit: More than 10 km
Bew├Âlkung: leicht bew├Âlkt 1500 ft
EHAM 301455Z 24025G35KT 9999 FEW015 13/09 Q1005 NOSIG
EHDL - Ede
Aktualisierung: 30-03-2023 16:55
Stark bew├Âlkt  
Stark bew├Âlkt  
   Wind: WSW 31.5 km/h
Wind: WSW 31.5 km/h
Temperatur: 15°C
Taupunkt: 8°C
Luftfeuchte: 63%
Luftdruck: 1005 hPa
Bew├Âlkt: Stark bew├Âlkt
Sichtbarkeit: More than 10 km
Bew├Âlkung: Stark bew├Âlkt 3100 ft,
Stark bew├Âlkt 3500 ft,
Stark bew├Âlkt 5900 ft
EHDL 301455Z AUTO 25017KT 170V310 9999 BKN031 BKN035 BKN059 15/08 Q1005 BLU
EHDL - Emmen
Aktualisierung: 30-03-2023 16:55
Stark bew├Âlkt  
Stark bew├Âlkt  
   Wind: WSW 31.5 km/h
Wind: WSW 31.5 km/h
Temperatur: 15°C
Taupunkt: 8°C
Luftfeuchte: 63%
Luftdruck: 1005 hPa
Bew├Âlkt: Stark bew├Âlkt
Sichtbarkeit: More than 10 km
Bew├Âlkung: Stark bew├Âlkt 3100 ft,
Stark bew├Âlkt 3500 ft,
Stark bew├Âlkt 5900 ft
EHDL 301455Z AUTO 25017KT 170V310 9999 BKN031 BKN035 BKN059 15/08 Q1005 BLU
EHAM - Den Haag
Aktualisierung: 30-03-2023 16:55
leicht bew├Âlkt  
leicht bew├Âlkt  
   Wind: WSW 46.3 km/h<br />Gust to 46.3 km/h
Wind: WSW 46.3 km/h
Gust to 46.3 km/h
Temperatur: 13°C
Taupunkt: 9°C
Luftfeuchte: 77%
Luftdruck: 1005 hPa
Bew├Âlkt: leicht bew├Âlkt
Sichtbarkeit: More than 10 km
Bew├Âlkung: leicht bew├Âlkt 1500 ft
EHAM 301455Z 24025G35KT 9999 FEW015 13/09 Q1005 NOSIG
EHAM - Apeldoorn
Aktualisierung: 30-03-2023 16:55
leicht bew├Âlkt  
leicht bew├Âlkt  
   Wind: WSW 46.3 km/h<br />Gust to 46.3 km/h
Wind: WSW 46.3 km/h
Gust to 46.3 km/h
Temperatur: 13°C
Taupunkt: 9°C
Luftfeuchte: 77%
Luftdruck: 1005 hPa
Bew├Âlkt: leicht bew├Âlkt
Sichtbarkeit: More than 10 km
Bew├Âlkung: leicht bew├Âlkt 1500 ft
EHAM 301455Z 24025G35KT 9999 FEW015 13/09 Q1005 NOSIG
EHAM - Leeuwarden
Aktualisierung: 30-03-2023 16:55
leicht bew├Âlkt  
leicht bew├Âlkt  
   Wind: WSW 46.3 km/h<br />Gust to 46.3 km/h
Wind: WSW 46.3 km/h
Gust to 46.3 km/h
Temperatur: 13°C
Taupunkt: 9°C
Luftfeuchte: 77%
Luftdruck: 1005 hPa
Bew├Âlkt: leicht bew├Âlkt
Sichtbarkeit: More than 10 km
Bew├Âlkung: leicht bew├Âlkt 1500 ft
EHAM 301455Z 24025G35KT 9999 FEW015 13/09 Q1005 NOSIG
TNCC - Willemstad
Aktualisierung: 30-03-2023 17:00
Stark bew├Âlkt  
Stark bew├Âlkt  
   Wind: Osten 22.2 km/h
Wind: Osten 22.2 km/h
Temperatur: 29°C
Hitzeindex: 33°C
Taupunkt: 23°C
Luftfeuchte: 70%
Luftdruck: 1016 hPa
Bew├Âlkt: Stark bew├Âlkt
Sichtbarkeit: More than 10 km
Bew├Âlkung: Stark bew├Âlkt 2300 ft
TNCC 301500Z 08012KT 9999 BKN023 29/23 Q1016 NOSIG
EHEH - Eindhoven
Aktualisierung: 30-03-2023 16:55
Stark bew├Âlkt  
Stark bew├Âlkt  
   Wind: WSW 20.4 km/h
Wind: WSW 20.4 km/h
Temperatur: 14°C
Taupunkt: 10°C
Luftfeuchte: 77%
Luftdruck: 1007 hPa
Bew├Âlkt: Stark bew├Âlkt
Sichtbarkeit: More than 10 km
Bew├Âlkung: leicht bew├Âlkt 3100 ft,
Teilweise bew├Âlkt 4100 ft,
Stark bew├Âlkt 4600 ft
EHEH 301455Z AUTO 24011KT 180V280 9999 FEW031 SCT041 BKN046 14/10 Q1007 BLU TEMPO 24016G30KT FEW015 SCT020CB BKN035
EHAM - Middelburg
Aktualisierung: 30-03-2023 16:55
leicht bew├Âlkt  
leicht bew├Âlkt  
   Wind: WSW 46.3 km/h<br />Gust to 46.3 km/h
Wind: WSW 46.3 km/h
Gust to 46.3 km/h
Temperatur: 13°C
Taupunkt: 9°C
Luftfeuchte: 77%
Luftdruck: 1005 hPa
Bew├Âlkt: leicht bew├Âlkt
Sichtbarkeit: More than 10 km
Bew├Âlkung: leicht bew├Âlkt 1500 ft
EHAM 301455Z 24025G35KT 9999 FEW015 13/09 Q1005 NOSIG
EHAM - Delfzijl
Aktualisierung: 30-03-2023 16:55
leicht bew├Âlkt  
leicht bew├Âlkt  
   Wind: WSW 46.3 km/h<br />Gust to 46.3 km/h
Wind: WSW 46.3 km/h
Gust to 46.3 km/h
Temperatur: 13°C
Taupunkt: 9°C
Luftfeuchte: 77%
Luftdruck: 1005 hPa
Bew├Âlkt: leicht bew├Âlkt
Sichtbarkeit: More than 10 km
Bew├Âlkung: leicht bew├Âlkt 1500 ft
EHAM 301455Z 24025G35KT 9999 FEW015 13/09 Q1005 NOSIG

Script entwickelt von  Saratoga-weather.org Angepasst f├╝r das Template von  Weerstation Leuven

Sie finden Wetter-Infos dieser Station auch auf:

UK Metoffice

European Weather Network

WeatherCloud

Weather Underground

AWEKAS

Neuwetter

Wettersektor

Von uns verwendete Ausr├╝stung:

Wetterstation
Davis VP2

Wetterprogramm
Meteobridge

WetterComputer
Computer

Anbieter
My provider

Davis VP2

Meteobridge

Computer

My provider